Regional Weather Roundup
Issued by NWS Cleveland, OH

Home | Current Version | Previous Version | Text Only | Print | Product List | Glossary Off
Versions: 1 2 3 4 5 6 7 8 9 10 11 12 13 14 15 16 17 18 19 20 21 22 23 24 25 26 27 28 29 30 31 32 33 34 35 36 37 38 39 40 41 42 43 44 45 46 47 48 49 50

000
ASUS41 KCLE 230210
RWRCLE
OHIO REGIONAL WEATHER ROUNDUP
NATIONAL WEATHER SERVICE WILMINGTON, OH
900 PM EST MON DEC 22 2014

NOTE: "FAIR" INDICATES FEW OR NO CLOUDS BELOW 12,000 FEET WITH NO
SIGNIFICANT WEATHER AND/OR OBSTRUCTIONS TO VISIBILITY.

OHZ001>008-015>018-024>027-034-035-043-044-230300-
   NORTHWEST OHIO

CITY           SKY/WX    TMP DP  RH WIND       PRES   REMARKS
DEFIANCE       LGT RAIN  37  33  85 E9        29.82F
FINDLAY        LGT RAIN  39  34  82 E9        29.82F
TOLEDO EXPRESS CLOUDY    38  32  79 E8        29.85F
TOLEDO METCALF CLOUDY    38  32  79 E6        29.87F
LIMA           CLOUDY    42  36  79 E8        29.80F
$$

OHZ009>014-019>023-028>033-038-089-230300-
   NORTHEAST OHIO

CITY           SKY/WX    TMP DP  RH WIND       PRES   REMARKS
CLE-HOPKINS    MOCLDY    39  30  70 SE13      29.92F
CLE-LAKEFRONT  CLOUDY    41  29  62 SE15      29.90F
CUY CO. ARPT   MOCLDY    39  32  75 SE16      29.93F
LORAIN-ELYRIA  MOCLDY    38  31  76 SE12      29.89F
ASHTABULA      MOCLDY    35  28  75 SE12G20   29.97S WCI  27
AKRON-CANTON   CLOUDY    40  30  67 SE10      29.90F
WOOSTER        CLOUDY    37  31  78 E7        29.90F
MANSFIELD      CLOUDY    40  33  76 SE8       29.86F
YOUNGSTOWN     CLOUDY    35  28  75 E14       29.94F WCI  26
$$

OHZ042-051>053-060>062-070>072-077>081-230300-
  SOUTHWEST OHIO

CITY           SKY/WX    TMP DP  RH WIND       PRES   REMARKS
CINC-COVINGTON CLOUDY    48  36  63 E12       29.75F
CINC-LUNKEN    MOCLDY    45  37  73 VRB3      29.78F
HAMILTON       CLOUDY    45  37  73 E5        29.78F
DAYTON         CLOUDY    47  37  68 SE15      29.78F
WRIGHT-PAT AFB CLOUDY    46  37  71 E8        29.78F
DAYTON GENERAL CLOUDY    45  37  73 E7        29.77F
WILMINGTON     CLOUDY    44  36  73 E8        29.78F
$$

OHZ036-037-039>041-045>050-054>059-063>069-073>076-082>088-230300-
  CENTRAL AND SOUTHEAST OHIO

CITY           SKY/WX    TMP DP  RH WIND       PRES   REMARKS
COLUMBUS       CLOUDY    46  34  62 E12       29.82F
OSU AIRPORT    CLOUDY    47  35  63 E14       29.81F
BOLTON FIELD   CLOUDY    44  36  73 E8        29.82F
RICKENBACK AFB CLOUDY    42  35  76 E6        29.81F
NEWARK         MOCLDY    40  33  76 NE5       29.85F
MARION         CLOUDY    43  33  68 SE10      29.84F
LANCASTER      MOCLDY    60  37  42 E10       29.84F
ZANESVILLE     MOCLDY    44  34  67 E5        29.87F
NEW PHILLY     CLOUDY    43  32  65 E8        29.91S
$$



USA.gov is the U.S. government's official web portal to all federal, state and local government web resources and services.